Location: Ferintosh
(52.7647°N, 112.9692°W)
Time: 13:18:59
(UTC+00:00)

Transit 2A Rocket - Pass Details

Date: 20 May 2024
Orbit: 583 x 910 km, 66.7° (Epoch: 14 June)

Event Time Altitude Azimuth Distance (km) Brightness Sun altitude
Rises 16:45:31 0° 306° (NW) 3,244 7.8 44.8°
Reaches altitude 10° 16:48:28 10° 323° (NW) 2,378 7.3 45.2°
Maximum altitude 16:52:33 21° 11° (N) 1,819 7.0 45.7°
Drops below altitude 10° 16:56:51 10° 58° (ENE) 2,519 8.0 46.3°
Sets 17:00:05 0° 74° (ENE) 3,497 8.8 46.7°
